[TLELIST] Archives

 

[TLELIST] Current TLEs

November 13th 2024 PDT

HST 1 20580U 90037B 24317.98492442 .00010272 00000-0 44059-3 0 9990 2 20580 28.4684 66.0299 0001978 206.7173 153.3319 15.21055316699943 ISS (ZARYA) 1 25544U 98067A 24318.20749274 .00020386 00000-0 34595-3 0 9991 2 25544 51.6381 297.0989 0008389 169.2577 190.8593 15.51430187481660 CXO 1 25867U 99040B 24318.59143727 .00000691 00000-0 00000-0 0 9992 2 25867 44.5231 142.0444 8730833 303.9002 0.2087 0.37812291 15126 ...Continue Reading

[TLELIST] Current TLEs

November 13th 2024 PDT

HST 1 20580U 90037B 24317.98492442 .00010272 00000-0 44059-3 0 9990 2 20580 28.4684 66.0299 0001978 206.7173 153.3319 15.21055316699943 ISS (ZARYA) 1 25544U 98067A 24318.20749274 .00020386 00000-0 34595-3 0 9991 2 25544 51.6381 297.0989 0008389 169.2577 190.8593 15.51430187481660 CXO 1 25867U 99040B 24318.59143727 .00000691 00000-0 00000-0 0 9992 2 25867 44.5231 142.0444 8730833 303.9002 0.2087 0.37812291 15126 ...Continue Reading

[TLELIST] Current TLEs

November 13th 2024 PDT

HST 1 20580U 90037B 24317.98492442 .00010272 00000-0 44059-3 0 9990 2 20580 28.4684 66.0299 0001978 206.7173 153.3319 15.21055316699943 ISS (ZARYA) 1 25544U 98067A 24318.20749274 .00020386 00000-0 34595-3 0 9991 2 25544 51.6381 297.0989 0008389 169.2577 190.8593 15.51430187481660 CXO 1 25867U 99040B 24318.59143727 .00000691 00000-0 00000-0 0 9992 2 25867 44.5231 142.0444 8730833 303.9002 0.2087 0.37812291 15126 ...Continue Reading

[TLELIST] Current TLEs

November 12th 2024 PDT

HST 1 20580U 90037B 24316.73827887 .00013869 00000-0 59817-3 0 9990 2 20580 28.4681 74.4250 0002086 192.3629 167.6914 15.21030499699750 ISS (ZARYA) 1 25544U 98067A 24317.24127085 .00019805 00000-0 33684-3 0 9996 2 25544 51.6380 301.8966 0008444 165.9795 194.1431 15.51387213481518 CXO 1 25867U 99040B 24318.59143727 .00000691 00000-0 00000-0 0 9992 2 25867 44.5231 142.0444 8730833 303.9002 0.2087 0.37812291 15126 ...Continue Reading

[TLELIST] Current TLEs

November 11th 2024 PDT

HST 1 20580U 90037B 24315.68845433 .00014543 00000-0 62816-3 0 9993 2 20580 28.4679 81.4935 0002087 180.7628 179.2962 15.21000967699339 ISS (ZARYA) 1 25544U 98067A 24316.21060541 .00023146 00000-0 39278-3 0 9993 2 25544 51.6386 307.0136 0008481 162.7826 197.3453 15.51344621481359 CXO 1 25867U 99040B 24318.59143727 .00000691 00000-0 00000-0 0 9992 2 25867 44.5231 142.0444 8730833 303.9002 0.2087 0.37812291 15126 ...Continue Reading

[TLELIST] Current TLEs

November 11th 2024 PDT

HST 1 20580U 90037B 24315.68845433 .00014543 00000-0 62816-3 0 9993 2 20580 28.4679 81.4935 0002087 180.7628 179.2962 15.21000967699339 ISS (ZARYA) 1 25544U 98067A 24316.21060541 .00023146 00000-0 39278-3 0 9993 2 25544 51.6386 307.0136 0008481 162.7826 197.3453 15.51344621481359 CXO 1 25867U 99040B 24318.59143727 .00000691 00000-0 00000-0 0 9992 2 25867 44.5231 142.0444 8730833 303.9002 0.2087 0.37812291 15126 ...Continue Reading

[TLELIST] Current TLEs

November 10th 2024 PDT

HST 1 20580U 90037B 24314.70422369 .00022350 00000-0 96974-3 0 9991 2 20580 28.4677 88.1208 0002313 168.2375 191.8273 15.20978544699188 ISS (ZARYA) 1 25544U 98067A 24315.17990951 .00026938 00000-0 45635-3 0 9990 2 25544 51.6390 312.1292 0008497 158.8307 201.3036 15.51300168481194 CXO 1 25867U 99040B 24315.94490051 .00000867 00000-0 00000-0 0 9998 2 25867 44.4345 142.2854 8731014 303.7599 359.9118 0.37806614 15120 ...Continue Reading

[TLELIST] Current TLEs

November 9th 2024 PDT

HST 1 20580U 90037B 24313.71997390 .00014882 00000-0 64414-3 0 9997 2 20580 28.4677 94.7485 0002427 157.7745 202.2953 15.20938467699034 ISS (ZARYA) 1 25544U 98067A 24314.35918063 .00089082 00000-0 14809-2 0 9990 2 25544 51.6405 316.2008 0008402 156.3395 297.3225 15.51274625481066 CXO 1 25867U 99040B 24313.30258683 .00000952 00000-0 00000-0 0 9994 2 25867 44.3702 142.4641 8733067 303.6795 0.1280 0.37805640 15100 ...Continue Reading

[TLELIST] Current TLEs

November 9th 2024 PDT

HST 1 20580U 90037B 24313.71997390 .00014882 00000-0 64414-3 0 9997 2 20580 28.4677 94.7485 0002427 157.7745 202.2953 15.20938467699034 ISS (ZARYA) 1 25544U 98067A 24314.35918063 .00089082 00000-0 14809-2 0 9990 2 25544 51.6405 316.2008 0008402 156.3395 297.3225 15.51274625481066 CXO 1 25867U 99040B 24313.30258683 .00000952 00000-0 00000-0 0 9994 2 25867 44.3702 142.4641 8733067 303.6795 0.1280 0.37805640 15100 ...Continue Reading

[TLELIST] Current TLEs

November 8th 2024 PDT

HST 1 20580U 90037B 24312.73570343 .00014945 00000-0 64744-3 0 9999 2 20580 28.4675 101.3755 0002532 147.5093 212.5656 15.20910120698889 ISS (ZARYA) 1 25544U 98067A 24313.27832176 .00022971 00000-0 38969-3 0 9998 2 25544 51.6408 321.5668 0009033 147.3123 26.1329 15.51352866480897 CXO 1 25867U 99040B 24313.30258683 .00000952 00000-0 00000-0 0 9994 2 25867 44.3702 142.4641 8733067 303.6795 0.1280 0.37805640 15100 ...Continue Reading
  • This mailing list is a public mailing list - anyone may join or leave, at any time.
  • This mailing list is announce-only.

International Space Station (ISS) / Hubble Space Telescope (HST) / Chandra X-Ray Observatory Orbital Data via EMAIL

Privacy Policy:

Private list